Location: Burgberg
(50.1428°N, 11.0671°E)
Time: 22:10:33
(UTC+00:00)

Cosmos 1844 - Pass Details

Date: 26 January 2020
Orbit: 825 x 866 km, 70.9° (Epoch: 18 February)

Event Time Altitude Azimuth Distance (km) Brightness Sun altitude
Exits shadow 05:03:29 10° 336° (NNW) 2,451 5.8 -18.2°
Reaches altitude 10° 05:03:31 10° 336° (NNW) 2,444 5.8 -18.2°
Maximum altitude 05:09:02 59° 56° (NE) 952 4.2 -17.4°
Drops below altitude 10° 05:14:30 10° 136° (SE) 2,422 6.9 -16.5°
Sets 05:16:58 0° 140° (SE) 3,353 7.6 -16.1°
